FW0821 Weather Reports


time (UTC)temp
F
wind
direction
speed
knots
gust
knots
rain 1hr
in
rain 24hr
in
rain mn
in
humidity
%
barometer
mb
20260504002219 77 338 5.2 9.6 0.00 0.00 0.00 42 1011.4
20260504001219 76 338 3.5 5.2 0.00 0.00 0.00 43 1011.4
20260504000219 77 315 7.0 9.6 0.00 0.00 0.00 43 1011.5
20260503235219 77 293 3.5 6.1 0.00 0.00 0.00 45 1011.7
20260503234220 76 270 3.5 5.2 0.00 0.00 0.00 46 1011.7
20260503233220 76 293 3.5 7.0 0.00 0.00 0.00 46 1011.7
20260503232221 76 315 4.3 7.0 0.00 0.00 0.00 47 1011.8
20260503231219 76 315 7.0 8.7 0.00 0.00 0.00 46 1012.0
20260503230218 76 293 7.0 8.7 0.00 0.00 0.00 46 1012.1
20260503225220 77 315 7.8 11.3 0.00 0.00 0.00 44 1012.3
20260503224219 77 315 7.8 10.4 0.00 0.00 0.00 44 1012.5
20260503223221 76 293 4.3 6.1 0.00 0.00 0.00 46 1012.7
20260503222221 76 270 2.6 5.2 0.00 0.00 0.00 48 1012.8
20260503221218 75 0 5.2 7.8 0.00 0.00 0.00 46 1012.9
20260503220218 75 315 6.1 11.3 0.00 0.00 0.00 46 1013.0
20260503215218 75 315 7.8 11.3 0.00 0.00 0.00 47 1013.1
20260503214220 76 293 5.2 9.6 0.00 0.00 0.00 49 1013.1
20260503213239 75 270 7.0 11.3 0.00 0.00 0.00 50 1013.2
20260503212219 75 293 8.7 10.4 0.00 0.00 0.00 50 1013.3
20260503211220 75 315 5.2 8.7 0.00 0.00 0.00 49 1013.4
20260503210220 76 270 5.2 7.8 0.00 0.00 0.00 48 1013.4
20260503205220 74 315 4.3 7.8 0.00 0.00 0.00 49 1013.4
20260503204301 74 293 6.1 8.7 0.00 0.00 0.00 50 1013.6
20260503203218 73 315 7.0 11.3 0.00 0.00 0.00 47 1013.7
20260503202240 73 315 7.8 10.4 0.00 0.00 0.00 46 1013.8
20260503201218 73 315 9.6 13.9 0.00 0.00 0.00 45 1014.0
20260503200220 73 293 7.8 12.2 0.00 0.00 0.00 46 1014.2
20260503195220 73 293 4.3 7.0 0.00 0.00 0.00 49 1014.3
20260503194218 73 315 6.1 7.8 0.00 0.00 0.00 53 1014.3
20260503193218 72 315 6.1 8.7 0.00 0.00 0.00 53 1014.6
20260503192220 72 270 4.3 7.8 0.00 0.00 0.00 55 1014.5
20260503191301 73 293 7.0 9.6 0.00 0.00 0.00 54 1014.6
20260503190218 72 293 4.3 6.1 0.00 0.00 0.00 57 1014.8
20260503185220 73 293 2.6 7.8 0.00 0.00 0.00 55 1014.9
20260503184220 74 0 3.5 7.8 0.00 0.00 0.00 56 1014.9
20260503183220 72 338 5.2 7.8 0.00 0.00 0.00 57 1015.1
20260503182220 71 293 4.3 7.0 0.00 0.00 0.00 58 1015.2
20260503181218 72 270 5.2 7.8 0.00 0.00 0.00 56 1015.2
20260503180220 71 293 5.2 8.7 0.00 0.00 0.00 59 1015.1
20260503175220 71 293 6.1 7.8 0.00 0.00 0.00 58 1015.3
20260503174220 73 0 3.5 5.2 0.00 0.00 0.00 55 1015.4
20260503173220 72 293 3.5 6.1 0.00 0.00 0.00 58 1015.4
20260503172220 69 270 5.2 7.8 0.00 0.00 0.00 60 1015.4
20260503171219 71 338 1.7 2.6 0.00 0.00 0.00 57 1015.4
20260503170219 69 338 3.5 5.2 0.00 0.00 0.00 60 1015.4
20260503150240 62 23 4.3 7.0 0.00 0.00 0.00 68 1015.5
20260503140219 60 23 2.6 3.5 0.00 0.00 0.00 66 1015.3
20260503131220 57 23 1.7 2.6 0.00 0.00 0.00 72 1015.1
20260503130220 56 45 1.7 1.7 0.00 0.00 0.00 74 1015.2
20260503120219 55 45 0.9 1.7 0.00 0.00 0.00 75 1015.3
20260503110220 57 0.0 0.9 0.00 0.00 0.00 69 1015.7
20260503100225 57 68 1.7 2.6 0.00 0.00 0.00 68 1015.7
20260503090220 59 68 0.9 1.7 0.00 0.00 0.00 63 1015.7
20260503081218 60 68 1.7 3.5 0.00 0.00 0.00 62 1015.6
20260503080220 60 68 1.7 2.6 0.00 0.00 0.00 62 1015.6
20260503072219 62 45 0.9 1.7 0.00 0.00 0.00 58 1015.6
20260503071259 63 0.0 0.0 0.00 0.00 0.00 56 1015.4
20260503070219 63 45 1.7 2.6 0.00 0.00 0.00 55 1015.4
20260503060218 64 45 0.9 1.7 0.00 0.00 0.00 55 1015.5
20260503054221 63 68 1.7 1.7 0.00 0.00 0.00 57 1015.4
20260503053221 63 68 1.7 2.6 0.00 0.00 0.00 57 1015.4
20260503052219 64 68 0.9 1.7 0.00 0.00 0.00 57 1015.5
20260503051218 64 68 0.9 2.6 0.00 0.00 0.00 56 1015.4
20260503050218 65 68 0.9 1.7 0.00 0.00 0.00 55 1015.5
20260503045219 65 0.0 0.9 0.00 0.00 0.00 54 1015.4
20260503044218 65 68 0.9 1.7 0.00 0.00 0.00 53 1015.3
20260503043238 66 68 0.9 1.7 0.00 0.00 0.00 53 1015.2
20260503042218 66 0.0 0.0 0.00 0.00 0.00 53 1015.0
20260503041218 66 0 3.5 7.0 0.00 0.00 0.00 52 1014.9
20260503040219 66 23 3.5 7.0 0.00 0.00 0.00 53 1014.8
20260503035220 66 338 3.5 5.2 0.00 0.00 0.00 53 1014.7
20260503034220 66 23 1.7 2.6 0.00 0.00 0.00 53 1014.8
20260503033219 67 0 1.7 3.5 0.00 0.00 0.00 53 1014.5
20260503032220 67 338 2.6 5.2 0.00 0.00 0.00 53 1014.5
20260503031220 68 0 2.6 4.3 0.00 0.00 0.00 53 1014.3
20260503030220 68 0 1.7 3.5 0.00 0.00 0.00 53 1014.3
20260503025218 69 23 2.6 3.5 0.00 0.00 0.00 53 1014.3
20260503024218 69 0 1.7 2.6 0.00 0.00 0.00 53 1014.2
20260503023219 70 23 1.7 3.5 0.00 0.00 0.00 54 1014.2
20260503022220 70 0 4.3 7.0 0.00 0.00 0.00 55 1014.1
20260503021219 69 338 3.5 7.8 0.00 0.00 0.00 55 1014.3
20260503020220 69 315 5.2 7.8 0.00 0.00 0.00 55 1014.4
20260503015239 70 338 5.2 7.8 0.00 0.00 0.00 55 1014.4
20260503014219 70 338 6.1 9.6 0.00 0.00 0.00 55 1014.5
20260503013240 70 0 4.3 7.0 0.00 0.00 0.00 54 1014.6
20260503012220 70 0 4.3 8.7 0.00 0.00 0.00 55 1014.6
20260503011218 71 0 6.1 9.6 0.00 0.00 0.00 54 1014.6
20260503010220 71 23 6.1 9.6 0.00 0.00 0.00 54 1014.6
20260503005300 71 338 4.3 7.0 0.00 0.00 0.00 55 1014.6
20260503004219 71 0 6.1 8.7 0.00 0.00 0.00 55 1014.7
20260503003218 72 0 6.1 10.4 0.00 0.00 0.00 55 1014.6